Showing default

ICEYE-X23, 56949

Orbit data source: Space-Track

ICEYE-X23, 56949 is a payload satellite owned by ICEYE (FI) in SSO that was launched on Mon, 12 Jun 2023 UTC via an FALCON 9 launch vehicle from the Air Force Western Test Range (AFWTR). Payload-class satellites include a variety of spacecraft equipped with specific instruments for various scientific and technological missions. These include communications satellites like Starlink; space stations such as the ISS; scientific satellites like the Hubble; Earth observation satellites from companies like Planet Labs, Umbra, and HawkEye 360; GPS; miniature CubeSats for education and research; and military/defense satellites.

Loading next visibility...
Identifier
56949, 2023-084T
Orbit
SSO
Country
Flag of FIFI / FIN
Related business
Manufacturer
ICEYE
Mission
Operational Commercial Radar Imaging
Bus & Motor
ICEYE, Unknown motor
Mass
90 kg wet, 89 kg dry
Launch date (UTC)
2023-06-12 (2 years ago)
Launch vehicle
FALCON 9
Launch site
Air Force Western Test Range (AFWTR)
Object type
Payload
Rocket body
Debris
Shape & HBR
Box + 1 Pan, 1.6 m
Radar Cross Section
0.825 m², Medium (>0.1 m² and < 1m²)

Expand to show TLE details & history
Last TLE update: 12 hours ago

TLE from 12 hours ago
0 ICEYE-X23
1 56949U 23084T   25286.63971543  .00129850  00000-0  14074-2 0  9994
2 56949  97.5694  65.5034 0001727 127.4869 232.6546 15.63113783130451
Epoch: 2025-10-13T15:21Z
TLE epoch observation values (Epoch: 2025-10-13T15:21:11.413Z)
Latitude
-0.00002°
Longitude
172.76625°
Altitude
382.521 km
Speed
7.68 km/s
True Right ascension
04h 22m 00s
True Declination
0° 00' 00"
Sunlit
Object was in full shadow at epoch
Visualization orbit readout
Latitude
Unknown
Longitude
Unknown
Altitude
Unknown
Speed
Unknown
Apparent Right ascension
Unknown
Apparent Declination
Unknown
Sunlit
N/A
Visualization observer readout
Local Sidereal Time
21:34:45
Azimuth
Unknown
Elevation
Unknown
Doppler factor
Unknown
Orbital elements
Apogee altitude
376.751 km
Perigee altitude
374.418 km
Semi-major axis
6,753.722 km
Eccentricity
0.00017
Inclination
97.5694°
RAAN
65.5034°
Arg. of periapsis
127.4869°
True anomaly
232.63887°
Mean anomaly
232.6546°
Eccentric anomaly
232.64673°
Mean motion
3.91047 °/min
Orbital period
92.06 mins
BSTAR
0.0014074
Loading maneuver chart data...
Computing Atmospheric mass density...

Documentation

Showing up to 5 results
|